FLOCK 4A-7 (44093 NORAD) Tracking and Keplerian Element Data

This shows tracking and keplerian element data for the satellite.

Feedback or suggestion? Click here.




ElementValue
Catalog44093
NameFLOCK 4A-7
Epoch Orbit430
Epoch Day119.67758484
Epoch Year2019
RAAN180.0073
Inclination97.4618
Eccentricity0.0011403
Argument of Perigee181.6812
Mean Anonmoly178.4387
Mean Motion15.21853162
Decay Rate7.35E-06
L11 44093U 19018R 19119.67758484 .00000735 00000-0 35387-4 0 9994
L22 44093 97.4618 180.0073 0011403 181.6812 178.4387 15.21853162 4301

Live tracking and technical data element details for FLOCK 4A-7 (NORAD 44093). FLOCK 4A-7 can be tracked NOW for your location showing map with azimuth and elevation plus other details from your city location.

Track the satellite on the map from your city or location and see movement details for azimuth, elevation, latitude, longitude, range, height, and movement on the map or in text.







IsCatalogInMostPopularTable: catalog: 44093, numindb: 30
Update: records affected: 1



GetName: 44093 FLOCK 4A-7

Hit Count: updated at: Mon, 15 Jul 2019 23:12:22 GMT